Location: Cajon Junction
(34.3117°N, 117.4748°W)
Time: 06:19:18
(UTC+00:00)

Cosmos 1244 Rocket - Pass Details

Date: 18 April 2024
Orbit: 953 x 997 km, 82.9° (Epoch: 28 May)

Event Time Altitude Azimuth Distance (km) Brightness Sun altitude
Rises 12:42:20 0° 189° (S) 3,664 7.2 -7.1°
Reaches altitude 10° 12:44:51 10° 191° (S) 2,714 6.6 -6.6°
Maximum altitude 12:51:03 76° 276° (W) 1,000 4.5 -5.4°
Drops below altitude 10° 12:57:14 10° 2° (N) 2,701 7.1 -4.2°
Sets 12:59:45 0° 5° (N) 3,646 7.8 -3.7°
